STARLINK-31631, 59459

Orbit data source: Space-Track

STARLINK-31631, 59459 is a payload satellite owned by SpaceX/Seattle (US) in LEO that was launched on Wed, 10 Apr 2024 UTC via an FALCON 9 launch vehicle from the Air Force Eastern Test Range (AFETR). Payload-class satellites include a variety of spacecraft equipped with specific instruments for various scientific and technological missions. These include communications satellites like Starlink; space stations such as the ISS; scientific satellites like the Hubble; Earth observation satellites from companies like Planet Labs, Umbra, and HawkEye 360; GPS; miniature CubeSats for education and research; and military/defense satellites.

Loading next visibility...
Identifier
59459, 2024-068E
Orbit
LEO
Country
Flag of USUS
Related business
Manufacturer
SpaceX/Seattle
Mission
Operational Commercial Communications
Bus & Motor
STARLINK V2M, Unknown motor
Mass
730 kg wet, ~700 kg dry
Launch date (UTC)
2024-04-10 (2 years ago)
Launch vehicle
FALCON 9
Launch site
Air Force Eastern Test Range (AFETR)
Object type
Payload
Rocket body
Debris
Shape & HBR
Box + 2 Pan, 17.7 m
Radar Cross Section
33.884 m², Large (>1 m²)

Expand to show TLE details & history
Last TLE update: 2 days ago

TLE from 2 days ago
0 STARLINK-31631
1 59459U 24068E   26171.00349469  .00000985  00000-0  45307-4 0  9999
2 59459  43.0023 172.9587 0001713 273.8958  86.1698 15.27581587124216
Epoch: 2026-06-20T00:05Z
TLE epoch observation values (Epoch: 2026-06-20T00:05:01.941Z)
Latitude
Longitude
-96.52374°
Altitude
482.742 km
Speed
7.626 km/s
True Right ascension
11h 31m 50s
True Declination
0° 00' 00"
Sunlit
Object was in daylight at epoch
Visualization orbit readout
Latitude
Unknown
Longitude
Unknown
Altitude
Unknown
Speed
Unknown
Apparent Right ascension
Unknown
Apparent Declination
Unknown
Sunlit
N/A
Visualization observer readout
Local Sidereal Time
21:27:16
Azimuth
Unknown
Elevation
Unknown
Doppler factor
Unknown
Orbital elements
Apogee altitude
486.165 km
Perigee altitude
483.813 km
Semi-major axis
6,863.126 km
Eccentricity
0.00017
Inclination
43.0023°
RAAN
172.9587°
Arg. of periapsis
273.8958°
True anomaly
86.18939°
Mean anomaly
86.1698°
Eccentric anomaly
86.17959°
Mean motion
3.81733 °/min
Orbital period
94.31 mins
BSTAR
0.000045307
Loading maneuver chart data...
Computing Atmospheric mass density...
Loading historical data...
Loading historical data...
Loading historical data...
Loading historical data...
Loading historical data...
Loading historical data...
Loading historical data...

Documentation

Showing up to 5 results
|